Location: Bucharest
(44.4268°N, 26.1025°E)
Time: 12:15:21
(UTC+03:00)

RS-44 - Visible Passes

Search period start: 27 June 2022 00:00
Search period end: 07 July 2022 00:00
Orbit: 1175 x 1509 km, 82.5° (Epoch: 26 June)

Date Brightness Start Highest point End Pass type
(mag) Time Alt. Az. Time Alt. Az. Time Alt. Az.
27 Jun ? 00:26:18 10° W 00:31:23 17° NW 00:36:41 10° NNW visible
27 Jun ? 22:52:24 10° SSW 23:00:11 51° WNW 23:08:35 10° N visible
28 Jun ? 00:54:03 10° WNW 00:56:12 11° NW 00:58:25 10° NNW visible
28 Jun ? 23:17:07 10° SW 23:24:23 35° WNW 23:32:08 10° N visible
29 Jun ? 21:46:06 10° S 21:54:10 82° E 22:02:53 10° N visible
29 Jun ? 23:42:28 10° WSW 23:48:47 24° WNW 23:55:27 10° N visible
30 Jun ? 22:09:56 10° SSW 22:18:01 69° WNW 22:26:44 10° N visible
01 Jul ? 00:08:43 10° W 00:13:26 16° NW 00:18:18 10° NNW visible
01 Jul ? 22:34:16 10° SW 22:42:04 47° WNW 22:50:26 10° N visible
02 Jul ? 22:59:08 10° SW 23:06:20 32° WNW 23:13:57 10° N visible
03 Jul ? 21:27:45 10° S 21:35:59 90° W 21:44:49 10° N visible
03 Jul ? 23:24:41 10° WSW 23:30:48 22° WNW 23:37:11 10° NNW visible
04 Jul ? 21:51:43 10° SSW 21:59:53 63° WNW 22:08:38 10° N visible
04 Jul ? 23:51:16 10° W 23:55:30 14° NW 23:59:52 10° NNW visible
05 Jul ? 22:16:11 10° SW 22:23:59 43° WNW 22:32:17 10° N visible
06 Jul ? 22:41:13 10° WSW 22:48:18 29° WNW 22:55:44 10° N visible
